Big Rapids, MI

2:49 PM EDT on October 14, 2019 (GMT -0400)
Roben-Hood

Weather History for KRQB - August, 2019

Change the Weather History Date:

Saturday, August 3, 2019

  Actual Average Record
Temperature  
Mean Temperature 70 °F -  
Max Temperature 86 °F 81 °F 99 °F (1988)
Min Temperature 55 °F 54 °F 43 °F (1971)
Cooling Degree Days 6    
Growing Degree Days 20 (Base 50)    
Moisture  
Dew Point 61 °F    
Average Humidity 78    
Maximum Humidity 96    
Minimum Humidity 42    
Precipitation  
Precipitation 0.09 in - - ()
Sea Level Pressure  
Sea Level Pressure 30.08 in    
Wind  
Wind Speed 2 mph (WSW)    
Max Wind Speed 13 mph    
Max Gust Speed 29 mph    
Visibility 10 miles    
Events Rain    
Averages and records for this station are not official NWS values.
T = Trace of Precipitation, MM = Missing Value Source: NWS Daily Summary

Daily Weather History Graph

Daily Weather History Graph

Search for Another Location

Airport or City:

Astronomy

Aug. 03, 2019 Rise Set
Actual Time 6:32 AM EDT 9:02 PM EDT
Civil Twilight 6:00 AM EDT 9:35 PM EDT
Nautical Twilight 5:19 AM EDT 10:15 PM EDT
Astronomical Twilight 4:33 AM EDT 11:01 PM EDT
Moon 9:29 AM EDT (8/3) 11:02 PM EDT (8/3)
Length of Visible Light 15h 34m
Length of Day
14h 29m
Waxing Crescent, 10% of the Moon is Illuminated
Aug 3
Waxing Crescent
Aug 7
First Quarter
Aug 15
Full
Aug 23
Last Quarter
Aug 30
New

Hourly Weather History & Observations

Time (EDT) Temp. Heat Index Dew Point Humidity Pressure Visibility Wind Dir Wind Speed Gust Speed Precip Events Conditions
12:15 AM 62.1 °F - 55.9 °F 80% 30.12 in 10.0 mi Calm Calm - N/A   Clear
12:35 AM 61.7 °F - 56.1 °F 82% 30.12 in 10.0 mi Calm Calm - N/A   Clear
12:58 AM 61.0 °F - 55.9 °F 83% 30.12 in 10.0 mi Calm Calm - N/A   Clear
1:16 AM 59.9 °F - 56.5 °F 88% 30.12 in 10.0 mi Calm Calm - N/A   Clear
1:35 AM 59.5 °F - 55.8 °F 87% 30.12 in 10.0 mi Calm Calm - N/A   Clear
1:36 AM 59.4 °F - 55.8 °F 88% 30.12 in 10.0 mi Calm Calm - N/A   Clear
1:55 AM 59.2 °F - 55.4 °F 87% 30.12 in 10.0 mi Calm Calm - N/A   Clear
2:17 AM 58.6 °F - 55.6 °F 90% 30.12 in 10.0 mi Calm Calm - N/A   Clear
2:36 AM 58.1 °F - 55.2 °F 90% 30.11 in 10.0 mi Calm Calm - N/A   Clear
2:55 AM 58.3 °F - 55.8 °F 91% 30.11 in 10.0 mi Calm Calm - N/A   Clear
3:15 AM 58.3 °F - 55.9 °F 92% 30.11 in 10.0 mi Calm Calm - N/A   Clear
3:20 AM 57.6 °F - 55.4 °F 92% 30.11 in 10.0 mi Calm Calm - N/A   Clear
3:38 AM 57.0 °F - 55.0 °F 93% 30.11 in 10.0 mi Calm Calm - N/A   Clear
3:56 AM 57.2 °F - 55.4 °F 94% 30.11 in 10.0 mi Calm Calm - N/A   Clear
4:15 AM 57.2 °F - 55.6 °F 94% 30.11 in 10.0 mi Calm Calm - N/A   Clear
4:16 AM 57.2 °F - 55.6 °F 94% 30.11 in 10.0 mi Calm Calm - N/A   Clear
4:35 AM 57.4 °F - 55.6 °F 94% 30.11 in 10.0 mi Calm Calm - N/A   Clear
4:40 AM 56.8 °F - 54.7 °F 92% 30.10 in 10.0 mi Calm Calm - N/A   Clear
4:58 AM 56.8 °F - 54.7 °F 92% 30.11 in 10.0 mi Calm Calm - N/A   Clear
5:16 AM 56.5 °F - 55.0 °F 95% 30.11 in 10.0 mi Calm Calm - N/A   Clear
5:35 AM 56.1 °F - 54.5 °F 94% 30.11 in 10.0 mi Calm Calm - N/A   Clear
5:36 AM 56.1 °F - 54.5 °F 94% 30.11 in 10.0 mi Calm Calm - N/A   Clear
5:55 AM 56.3 °F - 54.5 °F 94% 30.10 in 10.0 mi Calm Calm - N/A   Clear
6:19 AM 56.1 °F - 54.5 °F 94% 30.11 in 10.0 mi Calm Calm - N/A   Clear
6:37 AM 55.4 °F - 53.6 °F 94% 30.11 in 10.0 mi Calm Calm - N/A   Clear
6:55 AM 55.8 °F - 54.1 °F 94% 30.11 in 10.0 mi Calm Calm - N/A   Clear
6:56 AM 55.6 °F - 54.1 °F 95% 30.11 in 10.0 mi Calm Calm - N/A   Clear
7:15 AM 56.5 °F - 55.2 °F 96% 30.11 in 10.0 mi Calm Calm - N/A   Clear
7:35 AM 57.2 °F - 55.9 °F 96% 30.12 in 10.0 mi Calm Calm - N/A   Scattered Clouds
7:39 AM 57.6 °F - 56.3 °F 96% 30.12 in 10.0 mi Calm Calm - N/A   Mostly Cloudy
7:57 AM 58.5 °F - 56.7 °F 94% 30.12 in 10.0 mi Calm Calm - N/A   Scattered Clouds
8:15 AM 59.4 °F - 57.2 °F 93% 30.11 in 10.0 mi Calm Calm - N/A   Clear
8:16 AM 59.4 °F - 57.2 °F 93% 30.11 in 10.0 mi Calm Calm - N/A   Clear
8:35 AM 60.6 °F - 58.3 °F 92% 30.12 in 10.0 mi Calm Calm - N/A   Scattered Clouds
8:36 AM 60.8 °F - 58.3 °F 91% 30.12 in 10.0 mi Calm Calm - N/A   Scattered Clouds
8:55 AM 62.2 °F - 58.3 °F 87% 30.12 in 10.0 mi Calm Calm - N/A   Scattered Clouds
9:00 AM 62.6 °F - 58.5 °F 86% 30.11 in 10.0 mi Calm Calm - N/A   Scattered Clouds
9:18 AM 63.7 °F - 58.3 °F 83% 30.11 in 10.0 mi Calm Calm - N/A   Clear
9:36 AM 66.7 °F - 59.0 °F 76% 30.11 in 10.0 mi Calm Calm - N/A   Clear
9:55 AM 69.1 °F - 59.7 °F 72% 30.11 in 10.0 mi Calm Calm - N/A   Clear
9:56 AM 69.1 °F - 59.7 °F 72% 30.11 in 10.0 mi Calm Calm - N/A   Clear
10:15 AM 72.7 °F - 54.3 °F 52% 30.10 in 10.0 mi WSW 3.5 mph - N/A   Clear
10:16 AM 72.9 °F - 54.5 °F 52% 30.10 in 10.0 mi WSW 3.5 mph - N/A   Clear
10:39 AM 76.3 °F - 51.6 °F 42% 30.10 in 10.0 mi WSW 4.6 mph - N/A   Clear
10:57 AM 77.9 °F - 53.6 °F 43% 30.10 in 10.0 mi WNW 9.2 mph - N/A   Clear
11:15 AM 78.6 °F - 56.7 °F 47% 30.10 in 10.0 mi WSW 4.6 mph - N/A   Clear
11:35 AM 79.9 °F - 59.4 °F 49% 30.10 in 10.0 mi WNW 8.1 mph - N/A   Clear
11:36 AM 79.9 °F - 59.4 °F 49% 30.10 in 10.0 mi WNW 6.9 mph - N/A   Clear
11:55 AM 80.2 °F 81.0 °F 60.1 °F 50% 30.09 in 10.0 mi West 6.9 mph - N/A   Clear
12:18 PM 80.8 °F 81.5 °F 60.6 °F 50% 30.08 in 10.0 mi WNW 6.9 mph 16.1 mph N/A   Clear
12:36 PM 82.0 °F 83.0 °F 62.2 °F 51% 30.08 in 10.0 mi West 4.6 mph - N/A   Clear
12:55 PM 83.1 °F 84.0 °F 62.6 °F 50% 30.07 in 10.0 mi West 6.9 mph - N/A   Clear
12:56 PM 83.1 °F 83.9 °F 62.2 °F 49% 30.07 in 10.0 mi West 5.8 mph - N/A   Clear
1:15 PM 82.8 °F 83.8 °F 62.8 °F 51% 30.06 in 10.0 mi West 6.9 mph 18.4 mph N/A   Scattered Clouds
1:16 PM 83.1 °F 84.0 °F 62.8 °F 50% 30.06 in 10.0 mi West 8.1 mph 18.4 mph N/A   Scattered Clouds
1:38 PM 83.3 °F 84.3 °F 63.1 °F 50% 30.06 in 10.0 mi WSW 5.8 mph - N/A   Scattered Clouds
1:55 PM 83.1 °F 84.0 °F 62.6 °F 50% 30.06 in 10.0 mi WNW 12.7 mph 19.6 mph N/A   Scattered Clouds
2:15 PM 84.9 °F 85.9 °F 63.0 °F 48% 30.05 in 10.0 mi WSW 6.9 mph - N/A   Scattered Clouds
2:16 PM 84.9 °F 85.9 °F 63.0 °F 48% 30.05 in 10.0 mi WSW 6.9 mph - N/A   Scattered Clouds
2:35 PM 84.2 °F 84.8 °F 61.7 °F 47% 30.04 in 10.0 mi Calm Calm - N/A   Scattered Clouds
2:36 PM 84.2 °F 84.6 °F 61.2 °F 46% 30.04 in 10.0 mi West 4.6 mph - N/A   Scattered Clouds
2:59 PM 86.0 °F 86.1 °F 61.3 °F 43% 30.04 in 10.0 mi WSW 4.6 mph - N/A   Mostly Cloudy
3:17 PM 86.0 °F 86.1 °F 61.2 °F 43% 30.02 in 10.0 mi SW 5.8 mph - N/A   Scattered Clouds
3:35 PM 85.3 °F 85.9 °F 62.6 °F 46% 30.02 in 10.0 mi SW 8.1 mph - N/A   Scattered Clouds
3:55 PM 84.2 °F 85.0 °F 62.4 °F 48% 30.01 in 10.0 mi WSW 8.1 mph - N/A   Scattered Clouds
3:56 PM 84.0 °F 84.7 °F 62.6 °F 48% 30.01 in 10.0 mi WSW 8.1 mph - N/A   Scattered Clouds
4:15 PM 84.0 °F 84.9 °F 62.8 °F 49% 30.01 in 10.0 mi West 12.7 mph 16.1 mph N/A   Mostly Cloudy
4:38 PM 75.0 °F - 63.1 °F 66% 30.04 in 10.0 mi West 11.5 mph 28.8 mph N/A Rain Light Rain
4:56 PM 70.2 °F - 64.4 °F 82% 30.05 in 5.0 mi SW 6.9 mph - 0.05 in Rain Rain
5:15 PM 70.0 °F - 65.3 °F 85% 30.03 in 10.0 mi East 5.8 mph - 0.02 in Rain Light Rain
5:38 PM 70.9 °F - 66.6 °F 86% 30.04 in 7.0 mi SSW 5.8 mph - 0.04 in Rain Light Rain
5:56 PM 72.0 °F - 67.3 °F 85% 30.03 in 10.0 mi NNE 3.5 mph - 0.04 in Rain Light Rain
6:15 PM 75.2 °F - 68.5 °F 80% 30.03 in 10.0 mi SSW 6.9 mph - N/A   Clear
6:16 PM 75.4 °F - 68.7 °F 80% 30.03 in 10.0 mi SSW 10.4 mph - N/A   Clear
6:35 PM 74.5 °F - 67.6 °F 79% 30.03 in 10.0 mi Calm Calm - N/A   Scattered Clouds
6:55 PM 74.5 °F - 68.9 °F 83% 30.03 in 10.0 mi East 4.6 mph - N/A   Mostly Cloudy
7:00 PM 74.7 °F - 69.1 °F 83% 30.04 in 10.0 mi East 5.8 mph - N/A   Mostly Cloudy
7:18 PM 74.1 °F - 69.3 °F 85% 30.04 in 10.0 mi ESE 6.9 mph - N/A   Scattered Clouds
7:36 PM 73.8 °F - 69.3 °F 86% 30.04 in 10.0 mi ESE 5.8 mph - N/A   Clear
7:55 PM 73.4 °F - 69.3 °F 87% 30.04 in 10.0 mi Calm Calm - N/A   Clear
8:15 PM 72.1 °F - 69.8 °F 92% 30.04 in 10.0 mi South 5.8 mph - N/A   Clear
8:16 PM 72.1 °F - 69.8 °F 92% 30.04 in 10.0 mi South 5.8 mph - N/A   Clear
8:38 PM 72.1 °F - 69.4 °F 91% 30.04 in 10.0 mi Calm Calm - N/A   Scattered Clouds
8:55 PM 71.8 °F - 68.2 °F 88% 30.04 in 10.0 mi West 3.5 mph - N/A   Scattered Clouds
8:56 PM 71.8 °F - 68.2 °F 88% 30.04 in 10.0 mi West 3.5 mph - N/A   Scattered Clouds
9:15 PM 70.3 °F - 67.8 °F 92% 30.04 in 10.0 mi Calm Calm - N/A   Scattered Clouds
9:16 PM 70.3 °F - 67.8 °F 92% 30.04 in 10.0 mi Calm Calm - N/A   Scattered Clouds
9:35 PM 69.8 °F - 67.5 °F 92% 30.04 in 10.0 mi Calm Calm - N/A   Clear
9:58 PM 70.0 °F - 66.4 °F 88% 30.04 in 10.0 mi West 6.9 mph - N/A   Clear
10:16 PM 69.8 °F - 65.5 °F 86% 30.04 in 10.0 mi West 4.6 mph - N/A   Clear
10:35 PM 69.6 °F - 64.6 °F 84% 30.04 in 10.0 mi WNW 5.8 mph - N/A   Clear
10:36 PM 69.4 °F - 64.4 °F 84% 30.04 in 10.0 mi WNW 5.8 mph - N/A   Clear
10:55 PM 67.3 °F - 64.0 °F 89% 30.04 in 10.0 mi SSW 5.8 mph - N/A   Clear
11:18 PM 67.1 °F - 64.6 °F 92% 30.04 in 10.0 mi Calm Calm - N/A   Clear
11:36 PM 66.4 °F - 64.4 °F 93% 30.04 in 10.0 mi Calm Calm - N/A   Clear
11:55 PM 64.9 °F - 62.8 °F 93% 30.04 in 10.0 mi Calm Calm - N/A   Clear
11:56 PM 64.9 °F - 62.8 °F 93% 30.04 in 10.0 mi Calm Calm - N/A   Clear